DAL231 KSEA-PAJN

Flight info

Callsign DAL231
Flight time N/A
Altitude 34000
Route BANGR9 PANGL KEVNA ANN SSR
Aircraft B739/M-SDE2E3FGHIRWXY/LB1

Departure

Time N/A
Airport Seattle–Tacoma International Airport (KSEA)

Arrival

Time 2026-04-30 04:19
Airport Juneau International Airport (PAJN)
Time Latitude Longitude Altitude Speed Heading
2026-04-30 03:37 54.79107 -131.20101 35741 ft 455 kts 315°
2026-04-30 03:37 54.81579 -131.23533 36113 ft 452 kts 315°
2026-04-30 03:37 54.84027 -131.26940 36307 ft 452 kts 315°
2026-04-30 03:37 54.86492 -131.30383 36289 ft 455 kts 315°
2026-04-30 03:38 54.91386 -131.37228 36286 ft 452 kts 315°
2026-04-30 03:38 54.96276 -131.44087 36295 ft 451 kts 314°
2026-04-30 03:39 55.01156 -131.50956 36297 ft 449 kts 314°
2026-04-30 03:39 55.06000 -131.57767 36298 ft 451 kts 316°
2026-04-30 03:40 55.11311 -131.63823 36299 ft 459 kts 322°
2026-04-30 03:40 55.16818 -131.69571 36319 ft 462 kts 322°
2026-04-30 03:41 55.22348 -131.75399 36311 ft 464 kts 322°
2026-04-30 03:41 55.27851 -131.81310 36291 ft 467 kts 322°
2026-04-30 03:42 55.33404 -131.87337 36298 ft 470 kts 322°
2026-04-30 03:42 55.38944 -131.93368 36300 ft 471 kts 322°
2026-04-30 03:43 55.44530 -131.99468 36304 ft 473 kts 321°
2026-04-30 03:43 55.50127 -132.05601 36287 ft 474 kts 321°
2026-04-30 03:44 55.55725 -132.11757 36284 ft 473 kts 321°
2026-04-30 03:44 55.61299 -132.17903 36274 ft 473 kts 321°
2026-04-30 03:45 55.66864 -132.24066 36277 ft 473 kts 321°
2026-04-30 03:45 55.72453 -132.30276 36280 ft 472 kts 321°
2026-04-30 03:46 55.77980 -132.36438 36274 ft 471 kts 321°
2026-04-30 03:46 55.83543 -132.42659 36272 ft 471 kts 321°
2026-04-30 03:47 55.89091 -132.48886 36295 ft 471 kts 321°
2026-04-30 03:47 55.94603 -132.55096 36276 ft 471 kts 320°
2026-04-30 03:48 56.00158 -132.61374 36266 ft 471 kts 320°
2026-04-30 03:48 56.05700 -132.67659 36266 ft 472 kts 320°
2026-04-30 03:49 56.11215 -132.73934 36300 ft 472 kts 320°
2026-04-30 03:49 56.16781 -132.80292 36266 ft 473 kts 320°
2026-04-30 03:50 56.22348 -132.86670 36252 ft 474 kts 320°
2026-04-30 03:50 56.27873 -132.93022 36259 ft 475 kts 320°
2026-04-30 03:51 56.33453 -132.99461 36254 ft 476 kts 320°
2026-04-30 03:51 56.39038 -133.05929 36259 ft 476 kts 320°
2026-04-30 03:52 56.44583 -133.12372 36255 ft 476 kts 320°
2026-04-30 03:52 56.50151 -133.18862 36262 ft 475 kts 320°
2026-04-30 03:53 56.55712 -133.25369 36258 ft 474 kts 320°
2026-04-30 03:53 56.61259 -133.31885 36275 ft 473 kts 320°
2026-04-30 03:54 56.66740 -133.38347 36266 ft 471 kts 320°
2026-04-30 03:54 56.72251 -133.44862 36260 ft 471 kts 319°
2026-04-30 03:55 56.77744 -133.51382 36264 ft 470 kts 319°
2026-04-30 03:55 56.83198 -133.57881 36268 ft 471 kts 319°
2026-04-30 03:56 56.88685 -133.64442 36083 ft 474 kts 319°
2026-04-30 03:56 56.91478 -133.67801 35397 ft 482 kts 319°
2026-04-30 03:56 56.94283 -133.71171 34728 ft 481 kts 319°
2026-04-30 03:57 56.97092 -133.74549 33921 ft 483 kts 319°
2026-04-30 03:57 56.99871 -133.77899 33085 ft 484 kts 320°
2026-04-30 03:57 57.02693 -133.81304 32275 ft 485 kts 320°
2026-04-30 03:57 57.05515 -133.84715 31479 ft 485 kts 321°
2026-04-30 03:58 57.08335 -133.88131 30694 ft 487 kts 321°
2026-04-30 03:58 57.11175 -133.91581 29706 ft 490 kts 321°
2026-04-30 03:58 57.14031 -133.95056 28849 ft 489 kts 321°
2026-04-30 03:58 57.16845 -133.98479 28255 ft 483 kts 321°
2026-04-30 03:59 57.19638 -134.01882 27624 ft 477 kts 321°
2026-04-30 03:59 57.22392 -134.05244 27000 ft 472 kts 321°
2026-04-30 03:59 57.25086 -134.08543 26398 ft 467 kts 321°
2026-04-30 03:59 57.27784 -134.11854 25780 ft 462 kts 321°
2026-04-30 04:00 57.30451 -134.15135 25175 ft 458 kts 321°
2026-04-30 04:00 57.33092 -134.18390 24621 ft 453 kts 322°
2026-04-30 04:00 57.35707 -134.21617 24036 ft 449 kts 322°
2026-04-30 04:00 57.38269 -134.24780 23346 ft 446 kts 322°
2026-04-30 04:01 57.40833 -134.27959 22720 ft 440 kts 321°
2026-04-30 04:01 57.43374 -134.31110 22091 ft 436 kts 322°
2026-04-30 04:01 57.45882 -134.34225 21540 ft 431 kts 322°
2026-04-30 04:01 57.48371 -134.37322 20907 ft 427 kts 322°
2026-04-30 04:02 57.50829 -134.40390 20380 ft 423 kts 322°
2026-04-30 04:02 57.53235 -134.43397 19810 ft 420 kts 322°
2026-04-30 04:02 57.55651 -134.46421 19262 ft 416 kts 322°
2026-04-30 04:02 57.58048 -134.49424 18727 ft 414 kts 322°
2026-04-30 04:03 57.60437 -134.52424 18089 ft 412 kts 322°
2026-04-30 04:03 57.62811 -134.55415 17490 ft 409 kts 321°
2026-04-30 04:03 57.65139 -134.58348 16927 ft 407 kts 322°
2026-04-30 04:03 57.67469 -134.61317 16266 ft 405 kts 321°
2026-04-30 04:04 57.69795 -134.64267 15705 ft 403 kts 322°
2026-04-30 04:04 57.72077 -134.67301 15144 ft 398 kts 320°
2026-04-30 04:04 57.74350 -134.70231 14595 ft 395 kts 321°
2026-04-30 04:04 57.76627 -134.73100 14070 ft 393 kts 324°
2026-04-30 04:05 57.78928 -134.75745 13494 ft 391 kts 323°
2026-04-30 04:05 57.81197 -134.78544 12928 ft 388 kts 321°
2026-04-30 04:05 57.83418 -134.81390 12415 ft 385 kts 320°
2026-04-30 04:05 57.85617 -134.84237 11886 ft 382 kts 320°
2026-04-30 04:06 57.87797 -134.87060 11341 ft 380 kts 320°
2026-04-30 04:06 57.89948 -134.89838 10844 ft 377 kts 321°
2026-04-30 04:06 57.92087 -134.92590 10665 ft 365 kts 320°
2026-04-30 04:06 57.94152 -134.95264 10524 ft 354 kts 321°
2026-04-30 04:07 57.96233 -134.97674 10382 ft 350 kts 333°
2026-04-30 04:07 57.98521 -134.99276 10168 ft 344 kts 326°
2026-04-30 04:07 58.00203 -135.02148 10037 ft 317 kts 300°
2026-04-30 04:08 58.03473 -135.07548 9902 ft 307 kts 321°
2026-04-30 04:08 58.04647 -135.08972 9868 ft 300 kts 323°
2026-04-30 04:08 58.06398 -135.11078 9618 ft 296 kts 318°
2026-04-30 04:08 58.08081 -135.13342 9245 ft 298 kts 319°
2026-04-30 04:09 58.10339 -135.16230 8951 ft 289 kts 319°
2026-04-30 04:09 58.11441 -135.17637 8666 ft 287 kts 319°
2026-04-30 04:09 58.13098 -135.19774 8155 ft 288 kts 319°
2026-04-30 04:09 58.14883 -135.21566 7632 ft 297 kts 342°
2026-04-30 04:10 58.16946 -135.21641 7231 ft 299 kts 13°
2026-04-30 04:10 58.18785 -135.19899 6787 ft 293 kts 46°
2026-04-30 04:10 58.19983 -135.16938 6446 ft 277 kts 67°
2026-04-30 04:10 58.20759 -135.13691 6145 ft 265 kts 72°
2026-04-30 04:11 58.21474 -135.10534 5834 ft 256 kts 72°
2026-04-30 04:11 58.22176 -135.07499 5571 ft 247 kts 68°
2026-04-30 04:11 58.23345 -135.05154 5299 ft 250 kts 29°
2026-04-30 04:11 58.25005 -135.04292 5063 ft 246 kts 10°
2026-04-30 04:12 58.26661 -135.03792 4906 ft 234 kts 11°
2026-04-30 04:12 58.28212 -135.03309 4785 ft 222 kts 11°
2026-04-30 04:12 58.29706 -135.02832 4713 ft 214 kts 11°
2026-04-30 04:12 58.31174 -135.02355 4643 ft 215 kts 12°
2026-04-30 04:13 58.32660 -135.01869 4516 ft 218 kts 12°
2026-04-30 04:13 58.34157 -135.01278 4272 ft 216 kts 24°
2026-04-30 04:13 58.35249 -134.99599 4030 ft 193 kts 68°
2026-04-30 04:13 58.35666 -134.97361 3828 ft 173 kts 89°
2026-04-30 04:14 58.35729 -134.95154 3605 ft 161 kts 98°
2026-04-30 04:14 58.35726 -134.92889 3566 ft 186 kts 97°
2026-04-30 04:14 58.35721 -134.90326 3217 ft 193 kts 96°
2026-04-30 04:14 58.35729 -134.87890 2963 ft 179 kts 96°
2026-04-30 04:15 58.35738 -134.85603 2708 ft 166 kts 96°
2026-04-30 04:15 58.35745 -134.83522 2531 ft 149 kts 96°
2026-04-30 04:15 58.35749 -134.81552 2316 ft 149 kts 95°
2026-04-30 04:15 58.35754 -134.79573 2118 ft 149 kts 94°
2026-04-30 04:16 58.35758 -134.77614 1911 ft 145 kts 94°
2026-04-30 04:16 58.35763 -134.75703 1707 ft 145 kts 93°
2026-04-30 04:16 58.35767 -134.73775 1518 ft 146 kts 93°
2026-04-30 04:16 58.35771 -134.71843 1307 ft 146 kts 93°
2026-04-30 04:17 58.35773 -134.69931 1098 ft 148 kts 92°
2026-04-30 04:17 58.35779 -134.67994 915 ft 144 kts 96°
2026-04-30 04:17 58.35793 -134.66065 708 ft 147 kts 92°
2026-04-30 04:17 58.35890 -134.64215 636 ft 138 kts 85°
2026-04-30 04:18 58.35958 -134.62351 476 ft 143 kts 90°
2026-04-30 04:18 58.35911 -134.60425 211 ft 144 kts 106°
2026-04-30 04:18 58.35643 -134.58675 37 ft 129 kts 106°
2026-04-30 04:18 58.35454 -134.57322 34 ft 77 kts 105°
2026-04-30 04:19 58.35367 -134.56708 33 ft 30 kts 104°
2026-04-30 04:19 58.35316 -134.56338 33 ft 28 kts 105°
2026-04-30 04:19 58.35267 -134.55991 30 ft 26 kts 105°
2026-04-30 04:19 58.35223 -134.55665 31 ft 25 kts 107°
2026-04-30 04:20 58.35186 -134.55361 31 ft 23 kts 76°
2026-04-30 04:20 58.35297 -134.55373 32 ft 22 kts 288°
2026-04-30 04:20 58.35337 -134.55655 32 ft 22 kts 285°
2026-04-30 04:20 58.35376 -134.55929 33 ft 21 kts 285°
2026-04-30 04:21 58.35413 -134.56193 33 ft 20 kts 285°
2026-04-30 04:21 58.35449 -134.56452 32 ft 20 kts 285°
2026-04-30 04:21 58.35484 -134.56702 31 ft 19 kts 284°
2026-04-30 04:21 58.35517 -134.56945 33 ft 19 kts 284°
2026-04-30 04:22 58.35549 -134.57180 33 ft 18 kts 284°
2026-04-30 04:22 58.35580 -134.57406 34 ft 17 kts 284°
2026-04-30 04:22 58.35609 -134.57626 34 ft 17 kts 284°
2026-04-30 04:22 58.35637 -134.57836 34 ft 16 kts 284°
2026-04-30 04:23 58.35663 -134.58039 33 ft 15 kts 284°
2026-04-30 04:23 58.35689 -134.58232 32 ft 15 kts 284°
2026-04-30 04:23 58.35714 -134.58417 33 ft 14 kts 284°
2026-04-30 04:23 58.35762 -134.58563 33 ft 13 kts 341°
2026-04-30 04:24 58.35831 -134.58471 34 ft 13 kts 50°
2026-04-30 04:24 58.35844 -134.58444 32 ft 0 kts 47°